Regional Weather Roundup
Issued by NWS

Home | Current Version | Previous Version | Text Only | Print | Product List | Glossary Off
Versions: 1 2 3 4 5 6 7 8 9 10 11 12 13 14 15 16 17 18 19 20 21 22 23 24 25 26 27 28 29 30 31 32 33 34 35 36 37 38 39 40 41 42 43 44 45 46 47 48 49 50

000
ASUS45 KCYS 291410
RWRWY

WYOMING REGIONAL WEATHER ROUNDUP
NATIONAL WEATHER SERVICE CHEYENNE WY
800 AM MDT SUN MAR 29 2015

NOTE:  "FAIR" INDICATES FEW OR NO CLOUDS BELOW 12,000 FEET
WITH NO SIGNIFICANT WEATHER AND/OR OBSTRUCTIONS TO VISIBILITY.

WYZ001-291500-
YELLOWSTONE NATIONAL PARK

CITY           SKY/WX    TMP DP  RH WIND       PRES   REMARKS
LK YELLOWSTONE   N/A     18  12  77 CALM      30.35R
W YELLOWSTONE  NOT AVBL

$$
WYZ002>013-054>058-071-098>099-291500-
NORTHERN WYOMING

CITY           SKY/WX    TMP DP  RH WIND       PRES   REMARKS
JACKSON        CLEAR     21  19  93 CALM      30.36R
CODY           FAIR      39  18  41 SW8       30.23S WCI  34
GREYBULL       FAIR      37  20  50 SW3       30.25R
WORLAND        FAIR      37  21  52 S7        30.26R WCI  32
SHERIDAN       FAIR      40  26  57 CALM      30.24R
BUFFALO        FAIR      43  22  43 CALM      30.25R
GILLETTE       FAIR      41  29  62 W10       30.24R
HULETT         CLOUDY    41  32  70 NW9       30.24R
NEWCASTLE      FAIR      41  30  65 NW26G36   30.21R

$$
WYZ014>020-022>026-101>103-291500-
CENTRAL WYOMING

CITY           SKY/WX    TMP DP  RH WIND       PRES   REMARKS
BIG PINEY      FAIR      23  15  71 N3        30.34R
PINEDALE       FAIR      27  21  80 CALM      30.35R
DUBOIS         FAIR      28  14  54 NW13      30.29R WCI  18
LANDER         FAIR      37  18  46 CALM      30.28R
RIVERTON       FAIR      36  16  44 SW8       30.30R WCI  30
CASPER         FAIR      34  22  61 S5        30.29F WCI  30
DOUGLAS        FAIR      41  26  55 NW12      30.29R

$$
WYZ021-027>030-104>119-291500-
SOUTHERN WYOMING

CITY           SKY/WX    TMP DP  RH WIND       PRES   REMARKS
EVANSTON       FAIR      32  17  54 CALM      30.34R
FORT BRIDGER   FAIR      36  16  43 CALM      30.37S
ROCK SPRINGS   FAIR      32  17  54 SW5       30.36R WCI  27
DIXON          FAIR      30  22  71 CALM      30.38R
RAWLINS        FAIR      34  15  46 CALM      30.34R
SARATOGA       FAIR      34  16  47 MISG      30.35S
LARAMIE        FAIR      30  14  51 NW5       30.32R WCI  25
CHEYENNE       FAIR      39  18  42 N8        30.29R WCI  33
TORRINGTON     FAIR      44  28  53 W7        30.27R
PINE BLUFFS    FAIR      39  27  60 N17G26    30.27R WCI  30

$$


USA.gov is the U.S. government's official web portal to all federal, state and local government web resources and services.